Simultaneous Nadir Overpasses (SNOs) Predictions

Prediction of SNOs between AQUA and METOP-A Satellite Orbit:

Table of predicted SNOs for the next 14.0 days since TLE Epoch: 8/19/2016
Index Date (AQUA) Time (AQUA) Lat,Lon (AQUA) SZA (AQUA ) Date (METOP-A) Time (METOP-A) Lat,Lon (METOP-A) SZA (METOP-A ) Distance(km) Time Diff (sec)
1 08/20/2016 14:28:40 73.89, -43.12 61.75 08/20/2016 14:28:00 73.87, -43.05 61.74 3.23 40
2 08/20/2016 15:18:07 -73.94, 124.39 118.18 08/20/2016 15:18:41 -73.92, 124.40 118.21 2.72 34
3 08/23/2016 10:02:53 73.89, 23.31 62.70 08/23/2016 10:02:20 73.86, 23.35 62.67 3.27 33
4 08/23/2016 10:52:20 -73.94,-169.16 117.24 08/23/2016 10:53:00 -73.96,-169.08 117.23 3.39 40
5 08/26/2016 05:37:06 73.85, 89.85 63.61 08/26/2016 05:36:41 73.85, 89.74 63.63 3.64 25
6 08/26/2016 06:26:34 -73.95,-102.74 116.27 08/26/2016 06:27:21 -73.95,-102.69 116.27 1.43 47
7 08/29/2016 00:21:42 -73.29, -10.16 116.01 08/29/2016 00:20:35 -73.22, -12.64 115.98 80.01 67
8 08/29/2016 01:11:20 73.86, 156.26 64.62 08/29/2016 01:11:01 73.89, 156.24 64.65 3.10 19
9 08/29/2016 02:00:48 -73.96, -36.33 115.27 08/29/2016 02:01:42 -73.94, -36.31 115.30 2.36 54
10 08/31/2016 19:56:00 -73.57, 55.69 114.71 08/31/2016 19:54:49 -73.50, 54.41 114.72 41.23 71
11 08/31/2016 20:45:33 73.89,-137.35 65.65 08/31/2016 20:45:21 73.87,-137.39 65.64 1.58 12
12 08/31/2016 21:35:01 -73.98, 30.07 114.24 08/31/2016 21:36:01 -73.97, 30.18 114.26 3.73 60




NCC Satellite Simultaneous Nadir Overpasses (SNOs) Prediction Service
